Regional Weather Roundup
Issued by NWS

Home | Current Version | Previous Version | Graphics & Text | Print | Product List | Glossary On
Versions: 1 2 3 4 5 6 7 8 9 10 11 12 13 14 15 16 17 18 19 20 21 22 23 24 25 26 27 28 29 30 31 32 33 34 35 36 37 38 39 40 41 42 43 44 45 46 47 48 49 50
000
ASUS43 KLMK 251202
RWRKY
KENTUCKY REGIONAL WEATHER ROUNDUP
NATIONAL WEATHER SERVICE LOUISVILLE KY
800 AM EDT SAT APR 25 2015

NOTE "FAIR" INDICATES FEW OR NO CLOUDS BELOW 12,000 FEET
WITH NO SIGNIFICANT WEATHER AND/OR OBSTRUCTIONS TO VISIBILITY.

KYZ001>023-026-027-061>063-070>075-251300-
WESTERN AND SOUTH CENTRAL KENTUCKY

CITY           SKY/WX    TMP DP  RH WIND       PRES   REMARKS
PADUCAH        CLOUDY    58  54  86 SE7       29.64S
HENDERSON      CLOUDY    55  48  76 E6        29.67S
OWENSBORO      CLOUDY    56  53  89 SE9       29.69S
HOPKINSVILLE   CLOUDY    57  55  94 E5        29.68R
BOWLING GREEN  CLOUDY    57  53  86 SE5       29.70F
GLASGOW        NOT AVBL
$$

KYZ024-025-028>034-038-045-046-053-251300-
NORTH CENTRAL KENTUCKY

CITY           SKY/WX    TMP DP  RH WIND       PRES   REMARKS
LOUISVILLE/SDF LGT RAIN  51  47  86 E9        29.74F
LOUISVILLE/LOU LGT RAIN  51  45  79 E8        29.75F
FORT KNOX      LGT RAIN  50  46  87 E9        29.71F FOG
$$

KYZ035>037-039>044-047>052-055>060-089>105-251300-
NORTHEAST KENTUCKY

CITY           SKY/WX    TMP DP  RH WIND       PRES   REMARKS
LEXINGTON      CLOUDY    50  44  80 E12       29.78F
COVINGTON      LGT RAIN  48  40  73 E9        29.81R
FRANKFORT      CLOUDY    50  43  77 E8        29.76F
$$

KYZ054-064>069-076>088-106>120-251300-
SOUTHEAST KENTUCKY

CITY           SKY/WX    TMP DP  RH WIND       PRES   REMARKS
JACKSON        CLOUDY    47  42  83 VRB3      29.83F
LONDON         LGT RAIN  53  42  66 E9        29.73F
SOMERSET       NOT AVBL
MIDDLESBORO    DRIZZLE   54  47  78 SE7       29.84S
MONTICELLO     CLOUDY    53  52  97 S7        29.77R
$$




USA.gov is the U.S. government's official web portal to all federal, state and local government web resources and services.